Regional Weather Roundup
Issued by NWS

Home | Current Version | Previous Version | Text Only | Print | Product List | Glossary Off
Versions: 1 2 3 4 5 6 7 8 9 10 11 12 13 14 15 16 17 18 19 20 21 22 23 24 25 26 27 28 29 30 31 32 33 34 35 36 37 38 39 40 41 42 43 44 45 46 47 48 49 50

000
ASUS45 KABQ 102301
RWRNM
WEATHER ROUNDUP FOR NEW MEXICO
NATIONAL WEATHER SERVICE ALBUQUERQUE NM
500 PM MDT THU JUL 10 2014

NOTE: "FAIR" MEANS FEW OR NO CLOUDS BELOW 12,000 FEET AGL WITH NO
       SIGNIFICANT WEATHER OR OBSTRUCTIONS TO VISION.

      THIS PRODUCT IS RELEASED AS TWO VERSIONS.  ONE VERSION NEAR
      THE TOP OF THE HOUR CONTAINING PRELIMINARY DATA FROM ALBUQUERQUE
      AND OTHER STATIONS.  A FINAL VERSION WITH ADDITIONAL DATA IS
      ISSUED ABOUT 10 MINUTES AFTER THE HOUR.

NMZ501-503-504-510>518-110000-
NORTHWEST PLATEAU/NORTHCENTRAL MOUNTAINS

CITY           SKY/WX    TMP DP  RH WIND       PRES   REMARKS
FARMINGTON     SUNNY     91  43  18 SW12      30.02F
LOS ALAMOS     PTSUNNY   75  47  37 W8        30.19F
SANTA FE       MOSUNNY   85  44  23 SW12G18   30.11F
TAOS             N/A    N/A N/A N/A MISG        N/A
ANGEL FIRE     FAIR      65  53  65 CALM      30.31F

$$
NMZ402-403-502-505>509-110000-
WESTCENTRAL MOUNTAINS/SOUTHWEST MOUNTAINS

CITY           SKY/WX    TMP DP  RH WIND       PRES   REMARKS
GALLUP         SUNNY     87  44  22 SW10      30.12F
GRANTS         PTSUNNY   85  41  21 N5        30.15F

$$
NMZ407-409-411-412-110000-
SOUTHERN DESERTS

CITY           SKY/WX    TMP DP  RH WIND       PRES   REMARKS
LORDSBURG      FAIR      93  46  20 SE5       29.95F
DEMING         SUNNY     92  47  21 SW6       29.95F
LAS CRUCES     PTSUNNY   97  45  17 E10       29.99S
HOLLOMAN AFB   PTSUNNY   92  51  24 E13       29.96F
T OR C         LGT RAIN  84  51  31 NW12G32   30.00F

$$
NMZ519>523-110000-
CENTRAL VALLEYS/CENTRAL HIGHLANDS

CITY           SKY/WX    TMP DP  RH WIND       PRES   REMARKS
ALBUQUERQUE    PTSUNNY   88  47  24 CALM      30.04F
DOUBLE EAGLE   PTSUNNY   90  46  22 VRB7      30.08F
CLINES CORNERS PTSUNNY   78  48  34 S23       30.19R
BELEN          FAIR      82  51  34 SW22G33   30.05S
SOCORRO        FAIR      92  37  14 W7        30.01S

$$
NMZ524>526-539-540-110000-
SOUTHCENTRAL MOUNTAINS

CITY           SKY/WX    TMP DP  RH WIND       PRES   REMARKS
RUIDOSO        NOT AVBL

$$
NMZ527>531-110000-
NORTHEAST HIGHLANDS/NORTHEAST PLAINS

CITY           SKY/WX    TMP DP  RH WIND       PRES   REMARKS
LAS VEGAS      PTSUNNY   72  52  49 W13       30.19R
RATON            N/A    N/A N/A N/A MISG      30.08F
CLAYTON        SUNNY     93  49  22 S21G28    30.02F

$$
NMZ532>537-110000-
EASTCENTRAL PLAINS

CITY           SKY/WX    TMP DP  RH WIND       PRES   REMARKS
TUCUMCARI      MOSUNNY   95  48  20 S13       29.96F
CANNON AFB     SUNNY     89  51  27 S13G22    30.03F
CLOVIS AIRPORT NOT AVBL

$$
NMZ028-029-538-110000-
SOUTHEAST PLAINS

CITY           SKY/WX    TMP DP  RH WIND       PRES   REMARKS
ROSWELL        SUNNY     95  51  22 S14       29.97F
ARTESIA        SUNNY     93  48  21 SE13G20   29.96F
CARLSBAD       SUNNY     96  48  19 S13G25    29.94F
HOBBS          MOSUNNY   91  46  21 SE17G24   30.01F


$$


USA.gov is the U.S. government's official web portal to all federal, state and local government web resources and services.